Theta_e
339 337 335 337 339 343 343 340 338 339 337 337 337 334 338 339 336 334 337 338 335 337 345 342 342 340 337 327 326 326 327 330 331 331 335 337 338 339 339 339 337 338 338
340 337 334 337 339 342 341 340 341 338 338 337 335 336 338 338 338 335 337 336 338 338 341 343 343 339 345 328 324 329 341 342 342 340 337 338 337 329 329 334 334 334 336
340 336 335 335 337 341 342 342 340 337 336 336 335 338 338 339 338 336 336 338 338 337 337 334 331 333 335 328 328 333 338 341 341 340 337 336 337 340 337 332 331 322 325
339 335 334 330 334 338 342 341 340 337 335 336 337 338 338 339 340 338 336 337 337 337 337 334 329 326 328 331 334 337 335 335 336 332 337 335 335 332 335 334 329 328 328
338 336 338 329 332 335 339 341 340 338 337 335 337 337 337 339 340 339 338 337 337 336 335 331 326 325 328 332 334 334 334 330 327 334 332 334 334 331 327 327 328 326 333
338 336 331 329 331 333 336 338 339 340 339 337 337 336 337 338 339 339 339 338 337 336 333 328 327 327 329 330 331 332 332 330 328 331 331 334 335 334 326 327 333 332 328
339 337 336 331 331 332 334 336 339 339 338 336 335 336 336 337 337 335 331 334 335 335 333 328 328 330 330 330 331 328 328 326 334 330 330 332 334 326 323 324 325 324 324
339 338 337 332 331 333 334 334 333 333 333 333 334 336 336 336 337 335 330 330 331 330 328 329 329 329 329 328 328 329 330 331 330 330 328 328 332 321 322 323 322 322 323
339 339 340 340 338 332 333 334 335 333 333 334 335 335 335 336 336 334 332 330 328 328 326 328 328 326 327 328 331 333 334 333 332 331 332 330 328 319 321 321 322 321 321
330 332 337 338 340 340 339 332 333 335 335 335 335 334 334 336 336 334 332 331 329 327 326 326 327 328 329 332 332 334 334 333 331 333 333 334 332 326 320 321 321 322 321
325 325 329 333 337 340 339 339 333 332 334 336 336 335 336 339 340 341 339 339 330 328 326 325 326 329 331 332 333 333 334 333 331 332 332 334 332 332 332 328 323 323 322
321 321 322 327 332 338 340 339 339 339 338 338 338 339 339 338 339 338 339 333 331 330 329 326 325 326 329 333 334 334 334 333 333 331 331 334 333 333 334 333 333 331 323
318 319 320 322 327 338 341 342 339 338 338 339 340 340 339 338 338 337 335 338 337 335 335 333 333 332 330 330 331 332 331 333 332 330 330 332 333 332 332 335 335 334 333
316 317 318 320 322 329 338 341 343 341 339 339 338 339 339 339 338 337 335 335 336 335 334 334 333 333 334 334 333 331 330 330 329 329 330 331 332 331 332 335 335 335 334
314 315 316 317 319 322 328 336 340 343 342 342 340 339 339 338 338 338 338 337 336 335 335 334 332 331 333 333 333 332 331 329 327 328 328 330 331 330 330 333 335 335 335
312 312 314 316 318 320 324 327 332 338 342 342 343 342 341 341 338 337 338 338 338 337 336 335 333 330 330 330 330 332 332 330 328 326 325 326 329 329 327 329 332 335 335
310 310 311 313 316 319 322 325 329 333 335 341 341 340 340 340 341 341 339 338 338 337 338 338 336 335 333 330 328 329 329 330 330 329 328 325 324 325 327 327 328 332 334
308 309 310 311 313 317 320 323 328 329 333 334 339 340 339 339 339 339 340 340 339 339 338 337 337 336 334 332 330 328 327 327 328 329 329 328 325 324 324 326 328 328 330
307 307 308 309 311 314 317 321 326 323 323 323 328 330 332 335 336 339 340 340 340 339 339 338 338 337 336 335 332 331 330 329 327 326 326 326 327 326 324 323 325 326 326
307 306 307 308 309 311 314 317 321 322 320 318 318 319 322 326 330 335 338 340 341 340 339 339 338 337 337 336 335 333 332 332 332 332 332 330 326 325 326 326 325 326 326
307 307 306 306 307 308 310 312 316 318 318 316 314 314 315 319 321 323 325 332 336 339 339 339 339 339 338 337 337 336 334 333 333 334 334 332 331 329 327 328 329 327 327
305 305 306 306 305 306 307 308 310 312 312 314 314 314 313 312 314 316 316 318 321 327 335 337 337 338 338 338 336 336 337 332 330 330 332 334 333 332 330 330 332 333 333
304 304 304 305 305 305 306 307 308 309 309 309 309 310 311 310 310 311 312 313 314 317 318 323 325 331 336 337 338 337 339 337 332 329 330 333 333 333 333 333 333 333 333
304 304 304 304 304 304 305 305 306 307 307 307 307 307 308 308 308 307 308 309 310 312 313 315 318 320 324 326 330 336 335 336 340 340 333 332 333 335 335 335 334 334 334
304 303 304 303 304 303 304 304 304 305 304 304 304 305 306 306 306 305 306 307 308 307 309 310 313 314 317 321 322 325 329 330 333 338 339 336 335 335 335 336 335 335 335
304 303 303 303 303 303 302 302 303 303 303 302 302 302 302 302 303 303 305 306 307 306 305 306 309 308 309 312 314 319 322 323 324 323 324 322 323 329 328 331 334 335 335
Wind_Speed
9 11 13 8 4 8 15 18 17 16 18 20 20 18 17 17 17 19 20 18 17 14 14 13 13 13 12 12 15 16 17 16 15 14 15 15 15 15 14 15 14 10 13
11 11 14 10 6 10 17 17 16 16 17 19 19 18 18 16 15 17 17 15 13 13 14 14 13 11 13 15 16 17 16 14 13 12 11 11 11 11 12 12 9 10 12
11 11 11 10 8 11 16 17 16 15 17 17 17 17 17 15 14 14 14 13 11 11 12 12 11 13 14 16 15 14 14 14 13 12 11 8 7 9 9 10 9 8 8
10 10 10 11 10 9 14 16 16 15 16 15 15 15 15 13 12 12 12 10 9 9 9 10 11 13 15 15 13 11 11 10 9 9 5 6 6 7 7 6 5 5 5
9 8 8 11 11 11 11 14 15 15 14 14 13 12 12 11 10 9 9 8 7 7 7 8 11 14 15 14 12 10 9 8 8 5 4 4 4 4 5 4 2 2 6
9 7 8 10 10 10 11 13 14 14 13 12 12 11 10 9 9 7 7 7 6 6 6 8 10 13 13 12 11 9 8 7 6 3 3 4 3 5 4 5 7 6 4
9 9 6 7 7 8 10 12 14 14 13 12 12 12 10 8 7 6 6 6 7 7 7 8 10 12 11 11 9 8 7 6 3 3 4 4 4 6 4 4 4 4 4
10 9 7 4 5 5 5 7 11 12 12 13 12 10 9 8 8 7 6 6 6 7 6 8 10 10 11 10 9 6 5 4 4 5 5 5 8 6 5 5 5 5 5
13 11 9 6 4 2 2 5 6 9 11 12 11 9 7 7 8 8 7 7 7 6 7 8 10 11 11 10 9 6 5 5 5 6 6 6 9 7 6 6 7 7 8
15 13 9 8 4 2 0 4 6 8 9 9 10 9 7 7 8 7 7 7 8 7 8 10 11 12 13 12 12 10 10 9 8 9 8 7 11 8 8 8 9 10 10
15 15 11 8 5 2 2 4 5 7 9 10 9 9 8 6 7 8 9 10 8 9 10 11 12 14 15 15 15 14 14 10 11 11 10 11 10 11 11 11 13 13 13
18 16 14 10 6 4 4 4 5 6 7 8 8 9 9 10 10 10 10 11 10 10 11 13 14 15 17 14 14 16 16 14 14 14 13 14 13 11 13 15 17 18 16
16 17 17 15 10 3 6 7 8 8 9 9 10 10 10 10 11 11 11 11 11 12 11 13 14 15 16 17 17 16 15 16 16 17 17 19 18 15 15 17 19 22 21
17 18 18 18 15 9 4 7 9 11 11 11 11 11 11 12 12 13 13 13 13 13 13 15 15 16 17 18 19 19 18 19 19 19 19 22 23 20 19 18 18 19 22
19 19 18 18 17 15 9 6 9 9 11 12 13 13 13 13 14 14 15 15 15 14 14 15 17 18 18 20 20 21 21 21 22 23 23 22 26 25 23 23 21 20 20
17 19 18 18 19 15 12 10 8 8 11 12 12 14 14 15 15 17 17 18 17 17 16 16 17 18 20 20 21 22 23 23 24 24 25 25 26 28 29 28 26 23 22
17 17 19 18 19 17 15 13 10 8 11 12 15 15 15 16 16 17 20 20 20 19 18 19 18 18 20 21 22 23 24 25 25 27 27 26 27 29 30 30 32 30 27
18 19 19 19 19 17 16 13 10 13 9 7 9 12 15 17 19 21 18 21 22 21 20 20 20 20 21 22 23 23 24 24 26 27 27 28 28 28 29 31 32 32 33
22 22 23 22 22 18 16 13 10 12 15 15 15 12 11 10 12 19 20 19 19 21 21 21 22 22 23 24 24 24 25 26 26 27 29 29 29 30 30 31 32 33 34
18 19 20 21 23 19 17 13 12 12 14 16 18 20 20 17 15 13 14 19 18 19 19 20 22 23 24 25 25 27 27 27 27 28 28 29 30 30 31 31 30 30 33
18 20 22 23 24 22 21 19 14 14 15 16 17 18 19 21 20 19 16 12 12 17 19 20 21 23 24 24 24 26 29 30 30 30 30 30 30 30 30 30 29 29 29
18 19 20 21 23 23 19 19 15 14 15 14 16 17 20 20 21 21 23 22 19 16 14 21 21 22 23 23 23 24 14 21 26 30 29 25 28 29 29 29 28 27 25
18 19 18 20 20 21 18 18 16 14 14 17 19 20 19 20 21 23 22 24 23 20 20 14 15 12 17 23 23 15 9 12 16 23 21 18 19 21 21 20 20 21 24
15 16 16 17 18 19 20 17 18 16 17 17 16 17 18 20 21 22 26 25 24 25 25 22 17 19 18 15 17 22 31 24 11 13 27 27 23 21 22 24 25 24 23
12 14 14 16 17 18 18 18 17 17 16 16 17 17 18 19 20 24 24 26 27 26 24 25 23 20 20 15 16 17 17 14 21 8 9 18 27 29 25 24 26 25 26
10 12 12 13 15 17 19 19 18 17 17 19 18 19 19 19 19 22 21 22 22 22 24 24 23 23 21 19 20 18 16 8 3 5 3 3 8 12 26 30 29 24 25
Wind_Direction
132 145 153 150 145 158 163 168 167 167 164 160 154 149 147 143 138 141 144 142 136 132 121 120 123 128 127 127 125 123 117 112 109 118 125 127 131 133 134 126 108 124 133
134 140 154 152 139 158 164 166 167 166 163 161 154 152 149 143 141 145 148 146 138 132 128 128 129 129 122 127 130 128 122 117 115 114 114 113 115 122 127 121 118 144 146
128 139 146 157 147 164 172 169 167 163 163 162 156 153 150 146 143 146 150 147 141 137 135 134 130 127 131 134 135 135 136 135 132 131 111 116 122 126 131 143 157 138 143
126 136 146 163 159 162 177 174 171 165 164 163 159 156 154 151 149 150 153 153 148 147 144 142 138 138 140 142 142 142 143 146 147 129 114 126 128 145 147 146 145 142 146
123 132 153 162 165 166 174 177 174 167 165 164 163 162 160 158 158 156 160 164 161 159 158 156 149 148 148 148 150 150 152 147 139 120 141 135 139 181 158 158 77 130 128
118 118 148 155 164 167 170 173 174 170 168 170 170 168 168 170 173 176 179 180 182 178 176 167 158 157 157 156 155 156 159 156 151 173 157 180 145 218 183 175 188 201 206
99 104 112 141 152 168 177 171 175 176 175 175 174 172 177 181 184 186 183 186 191 191 190 179 171 167 167 164 161 163 172 171 209 207 201 194 196 226 208 215 214 231 240
87 87 87 92 135 156 171 180 178 179 177 174 175 179 182 188 191 191 189 188 194 200 202 192 187 183 181 179 171 174 175 176 238 231 232 222 229 238 229 232 245 250 254
76 75 63 63 45 28 172 184 183 183 180 179 183 188 194 195 195 197 203 204 206 210 207 203 199 199 198 197 200 212 235 252 251 250 251 242 250 252 249 263 260 257 258
53 52 55 56 42 73 305 243 198 202 203 204 203 205 205 203 206 213 216 220 216 218 216 211 210 213 213 216 225 239 250 266 265 258 257 249 255 262 259 267 273 266 261
44 34 30 21 22 319 269 253 224 225 222 224 229 225 221 221 231 242 230 233 231 225 221 221 221 220 224 231 238 244 252 260 257 255 255 256 272 264 267 268 269 269 267
38 29 22 10 355 324 265 261 252 246 230 228 242 245 235 239 239 231 237 243 240 240 236 230 229 232 235 239 249 256 254 254 255 255 256 266 275 278 274 274 271 268 266
39 33 26 16 8 332 210 248 245 240 242 246 239 242 248 254 251 248 244 252 246 251 243 248 242 241 240 242 246 248 250 252 257 258 257 265 267 273 277 285 282 272 264
35 30 24 18 14 357 336 234 253 242 242 240 240 243 250 257 255 256 254 253 248 248 248 245 247 244 244 244 247 252 254 255 258 260 261 266 271 269 273 282 286 283 266
31 24 21 16 13 8 352 301 257 266 254 248 247 245 239 242 255 260 260 261 258 257 253 252 254 253 251 251 252 253 255 256 258 259 263 267 270 268 268 272 279 280 277
24 22 17 16 11 6 4 352 306 279 257 260 254 253 250 252 251 252 260 261 262 261 262 261 259 261 260 258 257 256 257 258 259 259 260 263 268 273 267 265 268 272 271
28 24 19 14 10 11 4 2 2 339 292 276 269 266 257 254 257 259 257 256 258 258 261 265 266 264 262 261 260 258 257 256 257 258 259 260 262 266 271 270 263 262 264
32 29 26 20 12 12 11 10 16 17 31 350 301 284 289 280 277 260 258 257 254 256 256 257 262 265 265 265 264 262 261 258 257 255 257 257 258 260 263 266 268 266 262
30 26 23 19 17 15 12 21 26 27 29 28 28 19 349 309 290 268 255 256 256 254 254 258 260 259 263 265 267 266 264 263 261 260 258 257 257 257 257 259 265 267 268
38 33 29 24 20 19 20 22 28 23 23 22 22 19 13 6 346 317 282 269 264 257 256 255 256 261 261 265 270 272 270 269 267 263 261 260 258 257 257 258 258 262 267
37 35 31 27 22 21 20 19 19 15 17 16 17 16 15 16 17 11 355 323 300 270 263 260 261 258 256 257 263 268 268 264 262 263 264 260 259 257 256 258 258 259 261
39 35 32 31 28 24 21 18 17 21 23 21 17 16 14 14 14 18 17 4 356 337 286 264 263 261 257 259 255 261 269 268 261 261 257 261 261 259 258 255 255 255 257
36 33 31 31 31 29 26 22 23 27 25 23 21 17 16 19 18 13 18 9 4 8 359 8 4 312 276 264 255 240 269 263 269 264 256 256 266 265 261 257 253 251 260
36 32 33 33 35 33 30 29 28 28 25 19 17 17 21 21 20 16 14 15 9 4 3 3 356 348 353 345 303 276 247 256 272 275 270 265 268 254 260 266 268 263 257
46 37 31 31 32 30 31 32 31 29 26 21 18 17 19 19 20 17 13 10 9 6 1 0 3 5 5 343 348 348 306 303 300 292 264 274 285 279 281 269 260 262 269
50 41 37 33 31 27 26 27 29 29 25 23 20 18 17 17 16 13 13 8 7 4 3 1 359 355 352 350 342 350 337 310 297 311 289 338 324 328 312 306 298 286 275